EST,Max TemperatureF,Mean TemperatureF,Min TemperatureF,Max Dew PointF,MeanDew PointF,Min DewpointF,Max Humidity, Mean Humidity, Min Humidity, Max Sea Level PressureIn, Mean Sea Level PressureIn, Min Sea Level PressureIn, Max VisibilityMiles, Mean VisibilityMiles, Min VisibilityMiles, Max Wind SpeedMPH, Mean Wind SpeedMPH, Max Gust SpeedMPH,PrecipitationIn, CloudCover, Events, WindDirDegrees
2013-11-1,44,43,41,43,37,32,93,81,67,29.75,29.46,29.19,,,,20,16,26,0.01,,,38
2013-11-2,42,40,36,35,29,27,83,71,65,30.17,29.99,29.75,,,,13,7,18,0.00,,,107
2013-11-3,45,40,37,36,32,26,76,70,60,30.28,30.22,30.17,,,,17,6,32,0.00,,,204
2013-11-4,48,46,45,44,40,36,93,78,71,30.16,30.02,29.92,,,,21,14,37,0.17,,,211
2013-11-5,48,42,36,38,31,22,93,67,35,30.17,30.13,30.02,,,,14,5,22,0.36,,,275
2013-11-6,39,38,36,36,31,26,93,78,65,30.05,29.93,29.86,,,,23,12,28,0.20,,,10
2013-11-7,37,36,36,30,27,22,79,68,54,30.10,30.04,29.99,,,,24,20,32,0.02,,,1
2013-11-8,37,36,35,26,25,22,67,63,59,30.14,30.12,30.11,,,,13,10,18,0.00,,,344
2013-11-9,,,,,,,,,,,,,,,,,,,,,,
2013-11-10,,,,,,,,,,,,,,,,,,,,,,
2013-11-11,,,,,,,,,,,,,,,,,,,,,,
2013-11-12,,,,,,,,,,,,,,,,,,,,,,
2013-11-13,52,44,37,31,28,20,56,47,38,29.91,29.72,29.65,,,,17,10,47,0.00,,,290
2013-11-14,46,40,35,36,35,32,93,77,58,29.76,29.74,29.70,,,,13,6,24,0.00,,,339
2013-11-15,45,39,33,38,34,31,93,84,65,29.80,29.78,29.76,,,,9,4,16,0.00,,,241
2013-11-16,46,44,41,45,39,36,93,82,71,29.77,29.58,29.29,,,,18,8,32,0.51,,,213
2013-11-17,50,44,37,47,43,33,97,89,77,29.31,29.25,29.17,,,,30,8,40,0.12,,,283
2013-11-18,37,32,26,32,25,18,89,77,69,30.20,29.77,29.29,,,,38,31,50,0.00,,,1
2013-11-19,36,30,24,24,20,16,78,69,59,30.38,30.26,30.08,,,,18,11,32,0.00,,,230
2013-11-20,42,39,36,34,29,22,93,65,49,30.12,30.07,30.03,,,,21,15,34,0.11,,,218
2013-11-21,39,34,30,36,32,25,97,86,82,30.36,30.18,30.10,,,,28,9,38,0.02,,,328
2013-11-22,30,26,21,25,19,15,88,71,56,30.46,30.38,30.29,,,,33,17,39,0.02,,,14
2013-11-23,19,16,14,14,11,8,88,79,71,30.63,30.58,30.40,,,,36,30,45,0.01,,,19
2013-11-24,25,18,12,15,9,5,84,69,53,30.63,30.36,29.91,,,,21,13,30,0.04,,,271
2013-11-25,36,31,26,31,24,13,89,74,58,29.88,29.75,29.67,,,,25,11,32,0.12,,,292
2013-11-26,30,24,19,22,15,11,88,74,63,30.19,30.05,29.86,,,,28,23,37,0.03,,,13
2013-11-27,25,22,19,18,15,11,89,73,55,30.28,30.23,30.20,,,,28,19,36,0.10,,,52
2013-11-28,26,22,19,22,17,14,92,82,65,30.49,30.30,30.19,,,,15,5,29,0.55,,,116
2013-11-29,28,22,16,21,18,13,89,78,64,30.58,30.49,30.30,,,,13,4,22,0.00,,,234
2013-11-30,34,30,26,29,24,18,85,77,66,30.27,30.12,30.04,,,,13,7,21,0.03,,,331